| time (UTC) | temp C | wind direction | speed KPH | gust KPH | rain 1hr cm | rain 24hr cm | rain mn cm | humidity % | barometer mb |
| 20260505181516 | 26 | 177 | 9.7 | 19.3 | 0.00 | 0.03 | 0.03 | 44 | 1007.6 |
| 20260505181012 | 26 | 215 | 6.4 | 24.1 | 0.00 | 0.03 | 0.03 | 44 | 1007.7 |
| 20260505180509 | 26 | 180 | 9.7 | 27.4 | 0.00 | 0.03 | 0.03 | 43 | 1007.8 |
| 20260505180023 | 26 | 178 | 11.3 | 33.8 | 0.00 | 0.03 | 0.03 | 43 | 1007.7 |
| 20260505175515 | 26 | 225 | 12.9 | 33.8 | 0.00 | 0.03 | 0.03 | 42 | 1007.7 |
| 20260505175010 | 26 | 267 | 9.7 | 25.7 | 0.00 | 0.03 | 0.03 | 43 | 1007.7 |
| 20260505174524 | 26 | 221 | 9.7 | 29.0 | 0.00 | 0.03 | 0.03 | 42 | 1007.8 |
| 20260505174008 | 26 | 291 | 14.5 | 29.0 | 0.00 | 0.03 | 0.03 | 42 | 1007.8 |
| 20260505173511 | 26 | 221 | 8.0 | 20.9 | 0.00 | 0.03 | 0.03 | 43 | 1007.9 |
| 20260505173019 | 25 | 19 | 8.0 | 20.9 | 0.00 | 0.03 | 0.03 | 47 | 1008.0 |
| 20260505172506 | 26 | 215 | 6.4 | 20.9 | 0.00 | 0.03 | 0.03 | 44 | 1007.9 |
| 20260505172005 | 26 | 275 | 8.0 | 20.9 | 0.00 | 0.03 | 0.03 | 44 | 1008.0 |
| 20260505171515 | 25 | 209 | 4.8 | 16.1 | 0.00 | 0.03 | 0.03 | 47 | 1008.1 |
| 20260505171009 | 25 | 275 | 3.2 | 27.4 | 0.00 | 0.03 | 0.03 | 47 | 1008.1 |
| 20260505170506 | 25 | 189 | 12.9 | 29.0 | 0.00 | 0.03 | 0.03 | 46 | 1008.1 |
| 20260505170019 | 25 | 188 | 19.3 | 30.6 | 0.00 | 0.03 | 0.03 | 48 | 1008.4 |
| 20260505165507 | 25 | 202 | 11.3 | 30.6 | 0.00 | 0.03 | 0.03 | 47 | 1008.4 |
| 20260505165008 | 25 | 186 | 6.4 | 24.1 | 0.00 | 0.03 | 0.03 | 48 | 1008.4 |
| 20260505164524 | 25 | 200 | 9.7 | 22.5 | 0.00 | 0.03 | 0.03 | 47 | 1008.6 |
| 20260505164010 | 25 | 209 | 4.8 | 19.3 | 0.00 | 0.03 | 0.03 | 49 | 1008.6 |
| 20260505163511 | 25 | 189 | 6.4 | 16.1 | 0.00 | 0.03 | 0.03 | 48 | 1008.7 |
| 20260505163024 | 25 | 283 | 6.4 | 14.5 | 0.00 | 0.03 | 0.03 | 49 | 1009.0 |
| 20260505162509 | 25 | 238 | 3.2 | 14.5 | 0.00 | 0.03 | 0.03 | 50 | 1008.9 |
| 20260505162008 | 25 | 199 | 4.8 | 19.3 | 0.00 | 0.03 | 0.03 | 51 | 1009.0 |
| 20260505161512 | 24 | 261 | 4.8 | 19.3 | 0.00 | 0.03 | 0.03 | 49 | 1009.2 |
| 20260505161007 | 24 | 292 | 8.0 | 19.3 | 0.00 | 0.03 | 0.03 | 48 | 1009.1 |
| 20260505160506 | 24 | 306 | 4.8 | 19.3 | 0.00 | 0.03 | 0.03 | 50 | 1009.1 |
| 20260505153027 | 23 | 202 | 6.4 | 30.6 | 0.00 | 0.03 | 0.03 | 52 | 1009.0 |
| 20260505152511 | 23 | 205 | 9.7 | 30.6 | 0.00 | 0.03 | 0.03 | 53 | 1009.1 |
| 20260505152007 | 22 | 293 | 8.0 | 22.5 | 0.00 | 0.03 | 0.03 | 55 | 1009.2 |
| 20260505151528 | 22 | 250 | 14.5 | 22.5 | 0.00 | 0.03 | 0.03 | 54 | 1009.1 |
| 20260505151006 | 22 | 204 | 9.7 | 22.5 | 0.00 | 0.03 | 0.03 | 55 | 1009.1 |
| 20260505150508 | 22 | 194 | 9.7 | 25.7 | 0.00 | 0.03 | 0.03 | 55 | 1009.1 |
| 20260505140510 | 20 | 213 | 11.3 | 20.9 | 0.00 | 0.03 | 0.03 | 59 | 1009.5 |
| 20260505125017 | 17 | 192 | 4.8 | 9.7 | 0.00 | 0.03 | 0.03 | 66 | 1009.7 |
| 20260505124517 | 17 | 196 | 1.6 | 11.3 | 0.00 | 0.03 | 0.03 | 67 | 1009.9 |
| 20260505124014 | 17 | 194 | 4.8 | 11.3 | 0.00 | 0.03 | 0.03 | 65 | 1009.7 |
| 20260505123515 | 17 | 223 | 3.2 | 11.3 | 0.00 | 0.03 | 0.03 | 66 | 1009.7 |
| 20260505123022 | 17 | 222 | 3.2 | 16.1 | 0.00 | 0.03 | 0.03 | 66 | 1009.7 |
| 20260505122509 | 17 | 188 | 4.8 | 16.1 | 0.00 | 0.03 | 0.03 | 67 | 1009.8 |
| 20260505122014 | 17 | 186 | 6.4 | 14.5 | 0.00 | 0.03 | 0.03 | 68 | 1009.8 |
| 20260505121525 | 16 | 200 | 4.8 | 11.3 | 0.00 | 0.03 | 0.03 | 68 | 1009.7 |
| 20260505121009 | 16 | 231 | 6.4 | 11.3 | 0.00 | 0.03 | 0.03 | 68 | 1009.8 |
| 20260505120507 | 16 | 228 | 4.8 | 9.7 | 0.00 | 0.03 | 0.03 | 69 | 1009.7 |
| 20260505120028 | 16 | 232 | 3.2 | 6.4 | 0.00 | 0.03 | 0.03 | 69 | 1009.7 |
| 20260505115511 | 16 | 207 | 0.0 | 6.4 | 0.00 | 0.03 | 0.03 | 68 | 1009.6 |
| 20260505115009 | 16 | 207 | 3.2 | 6.4 | 0.00 | 0.03 | 0.03 | 68 | 1009.6 |
| 20260505114515 | 16 | 207 | 1.6 | 11.3 | 0.00 | 0.03 | 0.03 | 68 | 1009.6 |
| 20260505114009 | 16 | 223 | 4.8 | 11.3 | 0.00 | 0.03 | 0.03 | 68 | 1009.5 |
| 20260505113507 | 16 | 212 | 1.6 | 8.0 | 0.00 | 0.03 | 0.03 | 69 | 1009.5 |
| 20260505113018 | 16 | 299 | 1.6 | 12.9 | 0.00 | 0.03 | 0.03 | 70 | 1009.3 |
| 20260505112510 | 16 | 173 | 3.2 | 12.9 | 0.00 | 0.03 | 0.03 | 70 | 1008.9 |
| 20260505112003 | 16 | 202 | 0.0 | 8.0 | 0.00 | 0.03 | 0.03 | 70 | 1009.1 |
| 20260505111504 | 15 | 200 | 3.2 | 14.5 | 0.00 | 0.03 | 0.03 | 70 | 1009.0 |
| 20260505111005 | 15 | 213 | 3.2 | 16.1 | 0.00 | 0.03 | 0.03 | 70 | 1009.1 |
| 20260505110505 | 15 | 207 | 4.8 | 16.1 | 0.00 | 0.03 | 0.03 | 71 | 1009.1 |
| 20260505102013 | 15 | 208 | 3.2 | 11.3 | 0.00 | 0.03 | 0.03 | 70 | 1009.2 |
| 20260505101526 | 15 | 259 | 4.8 | 11.3 | 0.00 | 0.03 | 0.03 | 70 | 1008.9 |
| 20260505101008 | 15 | 207 | 1.6 | 9.7 | 0.00 | 0.03 | 0.03 | 71 | 1008.8 |
| 20260505100506 | 14 | 156 | 4.8 | 9.7 | 0.00 | 0.03 | 0.03 | 72 | 1008.7 |
| 20260505100007 | 14 | 217 | 1.6 | 4.8 | 0.00 | 0.03 | 0.03 | 73 | 1008.6 |
| 20260505095503 | 13 | 172 | 1.6 | 4.8 | 0.00 | 0.03 | 0.03 | 74 | 1008.5 |
| 20260505095009 | 13 | 206 | 0.0 | 3.2 | 0.00 | 0.03 | 0.03 | 73 | 1008.5 |
| 20260505094519 | 14 | 206 | 0.0 | 3.2 | 0.00 | 0.03 | 0.03 | 72 | 1008.6 |
| 20260505094006 | 14 | 206 | 0.0 | 1.6 | 0.00 | 0.03 | 0.03 | 71 | 1008.6 |
| 20260505093506 | 15 | 206 | 0.0 | 4.8 | 0.00 | 0.03 | 0.03 | 71 | 1008.5 |
| 20260505093016 | 15 | 206 | 0.0 | 4.8 | 0.00 | 0.03 | 0.03 | 71 | 1008.5 |
| 20260505092511 | 15 | 206 | 3.2 | 4.8 | 0.00 | 0.03 | 0.03 | 70 | 1008.5 |
| 20260505092010 | 15 | 202 | 0.0 | 3.2 | 0.00 | 0.03 | 0.03 | 70 | 1008.5 |
| 20260505091518 | 15 | 202 | 0.0 | 6.4 | 0.00 | 0.03 | 0.03 | 70 | 1008.5 |
| 20260505091011 | 15 | 202 | 1.6 | 6.4 | 0.00 | 0.03 | 0.03 | 69 | 1008.6 |
| 20260505090508 | 15 | 192 | 0.0 | 4.8 | 0.00 | 0.03 | 0.03 | 69 | 1008.5 |
| 20260505090025 | 15 | 232 | 0.0 | 8.0 | 0.00 | 0.03 | 0.03 | 69 | 1008.6 |
| 20260505085503 | 16 | 228 | 0.0 | 8.0 | 0.00 | 0.03 | 0.03 | 68 | 1008.6 |
| 20260505085003 | 16 | 178 | 1.6 | 11.3 | 0.00 | 0.03 | 0.03 | 68 | 1008.3 |
| 20260505084507 | 16 | 198 | 4.8 | 12.9 | 0.00 | 0.03 | 0.03 | 68 | 1008.3 |
| 20260505084004 | 15 | 188 | 8.0 | 12.9 | 0.00 | 0.03 | 0.03 | 68 | 1008.5 |
| 20260505083507 | 15 | 193 | 3.2 | 8.0 | 0.00 | 0.03 | 0.03 | 68 | 1008.4 |
| 20260505083016 | 16 | 173 | 1.6 | 8.0 | 0.00 | 0.03 | 0.03 | 68 | 1008.4 |
| 20260505082507 | 16 | 161 | 3.2 | 11.3 | 0.00 | 0.03 | 0.03 | 68 | 1008.4 |
| 20260505082010 | 16 | 218 | 4.8 | 12.9 | 0.00 | 0.03 | 0.03 | 68 | 1008.3 |
| 20260505081520 | 15 | 201 | 6.4 | 12.9 | 0.00 | 0.03 | 0.03 | 69 | 1008.3 |
| 20260505081011 | 15 | 202 | 6.4 | 11.3 | 0.00 | 0.03 | 0.03 | 69 | 1008.3 |
| 20260505080510 | 15 | 138 | 4.8 | 11.3 | 0.00 | 0.03 | 0.03 | 69 | 1008.3 |
| 20260505080022 | 15 | 213 | 0.0 | 3.2 | 0.00 | 0.03 | 0.03 | 69 | 1008.3 |
| 20260505075506 | 15 | 213 | 0.0 | 11.3 | 0.00 | 0.03 | 0.03 | 69 | 1008.4 |
| 20260505075013 | 15 | 150 | 3.2 | 11.3 | 0.00 | 0.03 | 0.03 | 68 | 1008.2 |
| 20260505074524 | 16 | 162 | 4.8 | 11.3 | 0.00 | 0.03 | 0.03 | 68 | 1008.2 |
| 20260505074004 | 16 | 188 | 4.8 | 12.9 | 0.00 | 0.03 | 0.03 | 68 | 1008.3 |
| 20260505073503 | 16 | 171 | 6.4 | 11.3 | 0.00 | 0.03 | 0.03 | 68 | 1008.2 |
| 20260505073012 | 15 | 166 | 8.0 | 9.7 | 0.00 | 0.03 | 0.03 | 69 | 1008.3 |
| 20260505072505 | 15 | 166 | 3.2 | 6.4 | 0.00 | 0.03 | 0.03 | 69 | 1008.2 |
| 20260505072007 | 16 | 165 | 0.0 | 3.2 | 0.00 | 0.03 | 0.03 | 68 | 1008.2 |
| 20260505071515 | 16 | 165 | 0.0 | 14.5 | 0.00 | 0.03 | 0.03 | 68 | 1008.2 |
| 20260505071008 | 16 | 165 | 0.0 | 14.5 | 0.00 | 0.03 | 0.03 | 67 | 1008.1 |
| 20260505070507 | 16 | 150 | 6.4 | 14.5 | 0.00 | 0.03 | 0.03 | 67 | 1008.0 |
| 20260505070030 | 16 | 175 | 3.2 | 11.3 | 0.00 | 0.03 | 0.03 | 66 | 1008.1 |
| 20260505065510 | 16 | 151 | 4.8 | 12.9 | 0.00 | 0.03 | 0.03 | 66 | 1008.0 |
| 20260505065008 | 16 | 146 | 6.4 | 12.9 | 0.00 | 0.03 | 0.03 | 66 | 1008.0 |
| 20260505064525 | 16 | 161 | 8.0 | 16.1 | 0.00 | 0.03 | 0.03 | 66 | 1008.0 |
| 20260505064012 | 16 | 161 | 6.4 | 16.1 | 0.00 | 0.03 | 0.03 | 67 | 1008.1 |
| 20260505063510 | 16 | 174 | 3.2 | 6.4 | 0.03 | 0.03 | 0.03 | 68 | 1008.2 |
| 20260505063011 | 16 | 171 | 3.2 | 6.4 | 0.03 | 0.03 | 0.03 | 67 | 1008.2 |
| 20260505062504 | 16 | 292 | 0.0 | 3.2 | 0.03 | 0.03 | 0.03 | 68 | 1008.2 |
| 20260505062009 | 17 | 246 | 0.0 | 6.4 | 0.03 | 0.03 | 0.03 | 67 | 1008.2 |
| 20260505061519 | 17 | 240 | 1.6 | 11.3 | 0.03 | 0.03 | 0.03 | 64 | 1008.2 |
| 20260505061008 | 16 | 209 | 3.2 | 12.9 | 0.03 | 0.03 | 0.03 | 66 | 1008.3 |
| 20260505060512 | 16 | 167 | 3.2 | 14.5 | 0.03 | 0.03 | 0.03 | 67 | 1008.2 |
| 20260505060017 | 16 | 187 | 8.0 | 14.5 | 0.03 | 0.03 | 0.03 | 69 | 1008.3 |
| 20260505055511 | 15 | 178 | 4.8 | 8.0 | 0.03 | 0.03 | 0.03 | 72 | 1008.3 |
| 20260505055013 | 16 | 150 | 4.8 | 6.4 | 0.03 | 0.03 | 0.03 | 71 | 1008.4 |
| 20260505054532 | 17 | 151 | 3.2 | 9.7 | 0.03 | 0.03 | 0.03 | 67 | 1008.5 |
| 20260505054014 | 17 | 177 | 4.8 | 9.7 | 0.03 | 0.03 | 0.03 | 64 | 1008.5 |
| 20260505053516 | 17 | 153 | 0.0 | 4.8 | 0.00 | 0.00 | 0.00 | 62 | 1008.7 |
| 20260505053023 | 17 | 176 | 0.0 | 6.4 | 0.00 | 0.00 | 0.00 | 61 | 1008.6 |
| 20260505052510 | 17 | 176 | 1.6 | 6.4 | 0.00 | 0.00 | 0.00 | 61 | 1008.5 |
| 20260505052007 | 17 | 214 | 3.2 | 8.0 | 0.00 | 0.00 | 0.00 | 60 | 1008.6 |
| 20260505051515 | 17 | 182 | 1.6 | 8.0 | 0.00 | 0.00 | 0.00 | 60 | 1008.6 |
| 20260505051005 | 17 | 233 | 1.6 | 9.7 | 0.00 | 0.00 | 0.00 | 60 | 1008.6 |
| 20260505050508 | 17 | 173 | 1.6 | 9.7 | 0.00 | 0.00 | 0.00 | 59 | 1008.5 |
| 20260505041544 | 17 | 169 | 8.0 | 20.9 | 0.00 | 0.00 | 0.00 | 58 | 1008.1 |
| 20260505041010 | 17 | 165 | 9.7 | 20.9 | 0.00 | 0.00 | 0.00 | 58 | 1008.1 |
| 20260505040508 | 17 | 161 | 6.4 | 14.5 | 0.00 | 0.00 | 0.00 | 57 | 1008.0 |
| 20260505040014 | 17 | 165 | 8.0 | 20.9 | 0.00 | 0.00 | 0.00 | 57 | 1008.1 |
| 20260505035511 | 17 | 205 | 8.0 | 20.9 | 0.00 | 0.00 | 0.00 | 56 | 1008.0 |
| 20260505035011 | 18 | 216 | 9.7 | 16.1 | 0.00 | 0.00 | 0.00 | 56 | 1008.1 |
| 20260505034524 | 18 | 175 | 8.0 | 14.5 | 0.00 | 0.00 | 0.00 | 56 | 1008.1 |
| 20260505034006 | 17 | 196 | 8.0 | 14.5 | 0.00 | 0.00 | 0.00 | 56 | 1008.0 |
| 20260505033508 | 17 | 204 | 6.4 | 17.7 | 0.00 | 0.00 | 0.00 | 56 | 1008.1 |
| 20260505033023 | 17 | 194 | 9.7 | 17.7 | 0.00 | 0.00 | 0.00 | 56 | 1008.0 |
| 20260505032510 | 17 | 183 | 6.4 | 16.1 | 0.00 | 0.00 | 0.00 | 56 | 1007.9 |
| 20260505032011 | 17 | 168 | 8.0 | 16.1 | 0.00 | 0.00 | 0.00 | 57 | 1008.1 |
| 20260505031537 | 17 | 177 | 3.2 | 8.0 | 0.00 | 0.00 | 0.00 | 56 | 1008.1 |
| 20260505031009 | 17 | 180 | 1.6 | 12.9 | 0.00 | 0.00 | 0.00 | 56 | 1008.2 |
| 20260505030508 | 17 | 189 | 6.4 | 14.5 | 0.00 | 0.00 | 0.00 | 55 | 1008.2 |
| 20260505030028 | 17 | 170 | 8.0 | 14.5 | 0.00 | 0.00 | 0.00 | 55 | 1008.2 |
| 20260505025504 | 17 | 161 | 6.4 | 12.9 | 0.00 | 0.00 | 0.00 | 55 | 1008.1 |
| 20260505025004 | 17 | 161 | 8.0 | 12.9 | 0.00 | 0.00 | 0.00 | 54 | 1008.2 |
| 20260505024509 | 18 | 146 | 4.8 | 11.3 | 0.00 | 0.00 | 0.00 | 54 | 1008.0 |
| 20260505024007 | 18 | 151 | 6.4 | 16.1 | 0.00 | 0.00 | 0.00 | 53 | 1008.1 |
| 20260505023505 | 18 | 156 | 6.4 | 17.7 | 0.00 | 0.00 | 0.00 | 52 | 1008.0 |
| 20260505023012 | 18 | 193 | 6.4 | 17.7 | 0.00 | 0.00 | 0.00 | 52 | 1008.0 |
| 20260505022507 | 18 | 169 | 9.7 | 17.7 | 0.00 | 0.00 | 0.00 | 51 | 1008.0 |
| 20260505022009 | 18 | 184 | 6.4 | 17.7 | 0.00 | 0.00 | 0.00 | 51 | 1008.0 |
| 20260505021509 | 18 | 175 | 3.2 | 9.7 | 0.00 | 0.00 | 0.00 | 51 | 1008.0 |
| 20260505021005 | 19 | 169 | 1.6 | 16.1 | 0.00 | 0.00 | 0.00 | 50 | 1008.0 |
| 20260505020503 | 19 | 171 | 8.0 | 16.1 | 0.00 | 0.00 | 0.00 | 49 | 1007.9 |
| 20260505020010 | 19 | 199 | 8.0 | 16.1 | 0.00 | 0.00 | 0.00 | 49 | 1008.0 |
| 20260505015505 | 19 | 202 | 4.8 | 16.1 | 0.00 | 0.00 | 0.00 | 49 | 1008.1 |
| 20260505015004 | 19 | 159 | 6.4 | 19.3 | 0.00 | 0.00 | 0.00 | 49 | 1008.0 |
| 20260505014513 | 19 | 188 | 9.7 | 16.1 | 0.00 | 0.00 | 0.00 | 49 | 1008.0 |
| 20260505014009 | 19 | 188 | 8.0 | 17.7 | 0.00 | 0.00 | 0.00 | 49 | 1008.0 |
| 20260505013511 | 20 | 179 | 6.4 | 17.7 | 0.00 | 0.00 | 0.00 | 48 | 1007.9 |
| 20260505013012 | 20 | 171 | 6.4 | 17.7 | 0.00 | 0.00 | 0.00 | 48 | 1007.9 |
| 20260505012506 | 20 | 157 | 4.8 | 17.7 | 0.00 | 0.00 | 0.00 | 48 | 1007.9 |
| 20260505012008 | 20 | 147 | 9.7 | 17.7 | 0.00 | 0.00 | 0.00 | 48 | 1007.9 |
| 20260505011512 | 20 | 191 | 6.4 | 16.1 | 0.00 | 0.00 | 0.00 | 48 | 1007.8 |
| 20260505011005 | 20 | 184 | 6.4 | 14.5 | 0.00 | 0.00 | 0.00 | 48 | 1007.8 |
| 20260505010507 | 20 | 175 | 6.4 | 11.3 | 0.00 | 0.00 | 0.00 | 48 | 1007.7 |
| 20260505010007 | 20 | 178 | 3.2 | 9.7 | 0.00 | 0.00 | 0.00 | 48 | 1007.7 |
| 20260505005504 | 20 | 229 | 4.8 | 14.5 | 0.00 | 0.00 | 0.00 | 48 | 1007.6 |
| 20260505005007 | 20 | 274 | 4.8 | 14.5 | 0.00 | 0.00 | 0.00 | 48 | 1007.6 |
| 20260505004512 | 20 | 230 | 8.0 | 12.9 | 0.00 | 0.00 | 0.00 | 48 | 1007.5 |
| 20260505004007 | 20 | 199 | 4.8 | 12.9 | 0.00 | 0.00 | 0.00 | 48 | 1007.5 |
| 20260505003511 | 20 | 227 | 6.4 | 12.9 | 0.00 | 0.00 | 0.00 | 48 | 1007.5 |
| 20260505003014 | 20 | 214 | 3.2 | 12.9 | 0.00 | 0.00 | 0.00 | 47 | 1007.5 |
| 20260505002507 | 20 | 169 | 3.2 | 17.7 | 0.00 | 0.00 | 0.00 | 47 | 1007.5 |
| 20260505002007 | 20 | 190 | 9.7 | 17.7 | 0.00 | 0.00 | 0.00 | 47 | 1007.5 |
| 20260505001514 | 20 | 240 | 4.8 | 12.9 | 0.00 | 0.00 | 0.00 | 48 | 1007.5 |
| 20260505001007 | 20 | 173 | 4.8 | 9.7 | 0.00 | 0.00 | 0.00 | 47 | 1007.4 |
| 20260505000504 | 20 | 212 | 4.8 | 14.5 | 0.00 | 0.00 | 0.00 | 48 | 1007.4 |
| 20260505000014 | 20 | 157 | 6.4 | 14.5 | 0.00 | 0.00 | 0.00 | 47 | 1007.4 |
| 20260504235510 | 20 | 194 | 9.7 | 16.1 | 0.00 | 0.00 | 0.00 | 47 | 1007.3 |
| 20260504235008 | 20 | 206 | 3.2 | 16.1 | 0.00 | 0.00 | 0.00 | 47 | 1007.4 |
| 20260504234510 | 20 | 203 | 8.0 | 17.7 | 0.00 | 0.00 | 0.00 | 46 | 1007.3 |
| 20260504234007 | 20 | 194 | 4.8 | 17.7 | 0.00 | 0.00 | 0.00 | 47 | 1007.3 |
| 20260504233511 | 21 | 199 | 6.4 | 17.7 | 0.00 | 0.00 | 0.00 | 46 | 1007.3 |
| 20260504233015 | 21 | 210 | 11.3 | 17.7 | 0.00 | 0.00 | 0.00 | 46 | 1007.3 |
| 20260504232511 | 21 | 196 | 6.4 | 20.9 | 0.00 | 0.00 | 0.00 | 46 | 1007.2 |
| 20260504232006 | 21 | 212 | 9.7 | 20.9 | 0.00 | 0.00 | 0.00 | 46 | 1007.2 |
| 20260504231516 | 21 | 196 | 6.4 | 22.5 | 0.00 | 0.00 | 0.00 | 46 | 1007.2 |
| 20260504231007 | 21 | 163 | 6.4 | 25.7 | 0.00 | 0.00 | 0.00 | 46 | 1007.2 |
| 20260504230508 | 21 | 203 | 12.9 | 25.7 | 0.00 | 0.00 | 0.00 | 45 | 1007.2 |
| 20260504230014 | 21 | 159 | 6.4 | 20.9 | 0.00 | 0.00 | 0.00 | 46 | 1007.3 |
| 20260504225509 | 21 | 212 | 4.8 | 25.7 | 0.00 | 0.00 | 0.00 | 45 | 1007.2 |
| 20260504225009 | 21 | 164 | 9.7 | 25.7 | 0.00 | 0.00 | 0.00 | 45 | 1007.2 |
| 20260504224521 | 21 | 140 | 11.3 | 24.1 | 0.00 | 0.00 | 0.00 | 45 | 1007.2 |
| 20260504224008 | 21 | 223 | 9.7 | 22.5 | 0.00 | 0.00 | 0.00 | 45 | 1007.2 |
| 20260504223507 | 22 | 200 | 6.4 | 20.9 | 0.00 | 0.00 | 0.00 | 45 | 1007.2 |
| 20260504223025 | 21 | 201 | 6.4 | 25.7 | 0.00 | 0.00 | 0.00 | 44 | 1007.3 |
| 20260504222507 | 21 | 228 | 12.9 | 27.4 | 0.00 | 0.00 | 0.00 | 44 | 1007.3 |
| 20260504222010 | 22 | 198 | 9.7 | 27.4 | 0.00 | 0.00 | 0.00 | 44 | 1007.2 |
| 20260504221517 | 22 | 202 | 9.7 | 22.5 | 0.00 | 0.00 | 0.00 | 44 | 1007.2 |
| 20260504221008 | 22 | 215 | 8.0 | 24.1 | 0.00 | 0.00 | 0.00 | 45 | 1007.1 |
| 20260504220509 | 22 | 188 | 9.7 | 24.1 | 0.00 | 0.00 | 0.00 | 44 | 1007.2 |
| 20260504220019 | 22 | 194 | 6.4 | 22.5 | 0.00 | 0.00 | 0.00 | 45 | 1007.2 |
| 20260504215507 | 22 | 195 | 8.0 | 22.5 | 0.00 | 0.00 | 0.00 | 44 | 1007.1 |
| 20260504215012 | 22 | 170 | 9.7 | 25.7 | 0.00 | 0.00 | 0.00 | 44 | 1007.2 |
| 20260504214522 | 22 | 159 | 8.0 | 25.7 | 0.00 | 0.00 | 0.00 | 43 | 1007.1 |
| 20260504214008 | 22 | 163 | 9.7 | 25.7 | 0.00 | 0.00 | 0.00 | 43 | 1007.1 |
| 20260504213512 | 22 | 188 | 8.0 | 25.7 | 0.00 | 0.00 | 0.00 | 44 | 1007.1 |
| 20260504213029 | 22 | 165 | 12.9 | 22.5 | 0.00 | 0.00 | 0.00 | 43 | 1007.1 |
| 20260504212506 | 22 | 191 | 11.3 | 20.9 | 0.00 | 0.00 | 0.00 | 42 | 1007.1 |
| 20260504212008 | 22 | 188 | 9.7 | 19.3 | 0.00 | 0.00 | 0.00 | 42 | 1007.2 |
| 20260504211523 | 23 | 146 | 9.7 | 19.3 | 0.00 | 0.00 | 0.00 | 42 | 1007.2 |
| 20260504211008 | 23 | 161 | 8.0 | 17.7 | 0.00 | 0.00 | 0.00 | 39 | 1007.1 |
| 20260504210508 | 23 | 192 | 6.4 | 14.5 | 0.00 | 0.00 | 0.00 | 39 | 1007.1 |
| 20260504210018 | 22 | 136 | 6.4 | 20.9 | 0.00 | 0.00 | 0.00 | 41 | 1007.1 |
| 20260504205510 | 22 | 184 | 9.7 | 22.5 | 0.00 | 0.00 | 0.00 | 40 | 1007.1 |
| 20260504205008 | 23 | 169 | 9.7 | 22.5 | 0.00 | 0.00 | 0.00 | 39 | 1007.2 |
| 20260504204533 | 23 | 198 | 9.7 | 22.5 | 0.00 | 0.00 | 0.00 | 40 | 1007.2 |
| 20260504204011 | 23 | 226 | 3.2 | 25.7 | 0.00 | 0.00 | 0.00 | 42 | 1007.2 |
| 20260504203508 | 23 | 229 | 9.7 | 24.1 | 0.00 | 0.00 | 0.00 | 38 | 1007.2 |
| 20260504203023 | 23 | 184 | 4.8 | 19.3 | 0.00 | 0.00 | 0.00 | 43 | 1007.3 |
| 20260504202506 | 22 | 185 | 4.8 | 22.5 | 0.00 | 0.00 | 0.00 | 41 | 1007.4 |
| 20260504202011 | 22 | 205 | 4.8 | 22.5 | 0.00 | 0.00 | 0.00 | 40 | 1007.6 |
| 20260504201515 | 22 | 191 | 4.8 | 22.5 | 0.00 | 0.00 | 0.00 | 41 | 1007.6 |
| 20260504201006 | 22 | 145 | 6.4 | 16.1 | 0.00 | 0.00 | 0.00 | 42 | 1007.6 |
| 20260504200510 | 22 | 273 | 6.4 | 19.3 | 0.00 | 0.00 | 0.00 | 43 | 1007.6 |
| 20260504200018 | 22 | 223 | 8.0 | 24.1 | 0.00 | 0.00 | 0.00 | 44 | 1007.8 |
| 20260504195509 | 22 | 209 | 12.9 | 24.1 | 0.00 | 0.00 | 0.00 | 42 | 1007.9 |
| 20260504195012 | 22 | 250 | 6.4 | 20.9 | 0.00 | 0.00 | 0.00 | 43 | 1008.1 |
| 20260504194520 | 22 | 198 | 6.4 | 22.5 | 0.00 | 0.00 | 0.00 | 43 | 1008.1 |
| 20260504194008 | 22 | 220 | 12.9 | 20.9 | 0.00 | 0.00 | 0.00 | 41 | 1008.2 |
| 20260504193509 | 22 | 163 | 11.3 | 25.7 | 0.00 | 0.00 | 0.00 | 44 | 1008.3 |
| 20260504193020 | 22 | 214 | 6.4 | 25.7 | 0.00 | 0.00 | 0.00 | 42 | 1008.2 |
| 20260504192510 | 22 | 294 | 4.8 | 16.1 | 0.00 | 0.00 | 0.00 | 42 | 1008.3 |
| 20260504192012 | 22 | 198 | 6.4 | 25.7 | 0.00 | 0.00 | 0.00 | 43 | 1008.4 |
| 20260504191521 | 21 | 175 | 16.1 | 27.4 | 0.00 | 0.00 | 0.00 | 43 | 1008.5 |
| 20260504191010 | 21 | 180 | 11.3 | 30.6 | 0.00 | 0.00 | 0.00 | 43 | 1008.5 |
| 20260504190507 | 21 | 223 | 11.3 | 30.6 | 0.00 | 0.00 | 0.00 | 44 | 1008.6 |
| 20260504190016 | 21 | 211 | 8.0 | 29.0 | 0.00 | 0.00 | 0.00 | 42 | 1008.8 |
| 20260504185508 | 21 | 211 | 8.0 | 24.1 | 0.00 | 0.00 | 0.00 | 43 | 1008.7 |
| 20260504185009 | 22 | 185 | 12.9 | 22.5 | 0.00 | 0.00 | 0.00 | 43 | 1008.8 |
| 20260504184524 | 21 | 296 | 6.4 | 20.9 | 0.00 | 0.00 | 0.00 | 41 | 1009.0 |
| 20260504184011 | 21 | 216 | 3.2 | 24.1 | 0.00 | 0.00 | 0.00 | 44 | 1008.9 |
| 20260504183509 | 21 | 204 | 9.7 | 24.1 | 0.00 | 0.00 | 0.00 | 44 | 1009.0 |
| 20260504183022 | 21 | 307 | 8.0 | 24.1 | 0.00 | 0.00 | 0.00 | 44 | 1009.1 |
| 20260504182508 | 21 | 217 | 6.4 | 22.5 | 0.00 | 0.00 | 0.00 | 44 | 1009.1 |
| 20260504182011 | 21 | 242 | 8.0 | 19.3 | 0.00 | 0.00 | 0.00 | 44 | 1009.2 |